Location: Marsån
(66.4167°N, 22.2833°E)
Time: 11:03:21
(UTC+00:00)

Terra - Pass Details

Date: 24 February 2024
Orbit: 693 x 696 km, 98.1° (Epoch: 16 April)

Event Time Altitude Azimuth Distance (km) Brightness Sun altitude
Exits shadow 18:39:08 44° 123° (ESE) 969 2.0 -19.9°
Maximum altitude 18:40:29 65° 62° (ENE) 773 1.8 -20.0°
Drops below altitude 10° 18:45:12 10° 341° (NNW) 2,173 4.9 -20.4°
Sets 18:47:28 0° 339° (NNW) 3,095 5.9 -20.6°
